Wind_Speed
15 16 17 18 18 18 19 19 20 20 20 18 17 18 18 18 18 18 18 19 20 21 23 24 24 24 24 25 26 28 30 31 33 35 35 34 32 30 29 29 31 33 34 35
15 16 16 17 17 17 17 18 19 19 18 17 16 16 16 15 15 15 16 17 19 20 21 21 22 22 22 23 23 25 26 27 27 28 28 28 26 24 23 22 22 23 25 25
15 15 15 15 16 16 17 17 18 17 16 16 15 15 14 13 13 14 15 16 18 19 20 20 21 21 20 20 21 21 22 23 23 23 23 22 21 20 19 17 16 16 16 17
15 15 15 14 15 15 16 16 16 16 16 16 15 14 13 13 13 13 14 15 17 17 18 18 18 18 18 19 18 18 19 19 20 20 19 19 17 16 15 13 12 10 10 11
15 15 14 14 14 15 15 15 16 16 16 16 15 14 13 13 13 13 14 14 15 16 17 17 17 17 16 16 16 16 16 17 17 17 16 16 15 14 12 11 8 6 6 8
16 16 15 15 14 14 15 15 16 16 17 17 16 15 14 13 13 13 13 13 14 15 15 15 15 15 14 14 14 14 14 15 15 15 15 14 14 13 12 11 8 6 5 5
17 17 16 16 15 15 15 15 16 16 17 17 17 16 14 14 13 13 13 14 14 14 14 14 14 14 13 13 12 13 13 13 13 14 14 14 13 13 13 11 10 8 6 6
19 19 18 17 17 17 17 17 17 17 18 18 17 16 15 14 14 14 14 14 14 14 14 13 13 13 12 12 12 12 12 13 13 13 14 13 13 13 12 11 10 9 8 8
20 20 20 20 19 19 19 18 19 19 19 19 18 18 16 15 15 15 15 15 14 14 14 13 13 13 13 12 12 12 12 13 13 14 14 14 13 12 11 11 10 10 11 11
21 22 21 21 21 20 20 20 20 21 21 20 20 19 18 17 16 16 16 15 15 14 14 13 13 13 13 13 13 13 13 13 14 14 14 14 13 13 12 12 12 12 13 14
21 23 23 22 22 22 22 22 22 22 22 22 21 21 20 19 18 17 17 17 16 15 14 14 13 13 13 13 13 13 14 14 14 14 14 14 14 13 13 14 14 15 16 17
21 22 23 23 23 23 23 23 24 24 23 23 23 22 22 21 20 19 19 18 18 17 16 15 14 14 15 15 14 15 15 15 15 15 15 15 15 15 15 16 17 18 19 21
21 22 23 23 24 24 24 24 24 25 25 25 24 24 23 23 22 21 20 19 18 18 17 16 16 16 16 16 16 16 16 16 16 16 16 16 16 17 18 19 20 21 22 24
20 21 22 23 23 24 24 25 26 26 26 26 26 26 25 24 23 22 21 20 20 19 19 18 17 17 17 17 17 17 18 18 18 18 18 18 18 19 20 21 22 23 25 27
20 20 21 22 23 23 24 25 26 26 26 27 27 27 26 25 25 24 23 22 21 21 21 20 19 18 18 19 19 19 19 19 19 19 19 20 20 21 22 23 25 26 27 29
21 20 20 21 22 23 24 24 25 26 26 27 27 27 27 27 26 25 25 24 23 22 22 21 21 20 20 20 20 20 21 21 21 21 21 22 22 23 24 25 27 28 29 31
21 21 21 21 22 23 24 24 24 25 25 26 27 27 27 27 27 26 25 25 24 23 23 23 22 22 21 21 21 21 22 22 22 22 22 23 24 25 26 27 28 30 31 33
22 21 21 22 22 23 24 24 25 25 26 26 26 27 27 27 27 26 26 25 25 25 24 23 23 23 23 23 23 23 23 23 23 23 23 24 25 26 27 28 30 31 33 34
20 20 21 21 22 22 23 24 25 25 26 26 26 27 27 27 27 26 26 25 25 25 25 24 24 24 24 24 24 24 24 24 24 24 25 25 26 27 28 29 31 32 34 35
19 20 20 21 21 21 22 23 24 24 25 25 26 26 27 27 27 26 26 26 26 26 26 25 25 25 25 25 25 25 25 25 25 25 26 26 27 28 29 30 32 33 35 36
17 17 18 18 18 19 20 20 21 22 23 24 25 25 26 26 26 26 26 26 26 26 26 26 26 26 26 26 26 26 26 26 26 26 26 26 27 28 30 31 33 34 36 37
15 15 15 16 16 16 17 17 18 20 21 22 23 24 25 25 26 26 26 26 26 26 26 26 26 27 27 27 27 26 26 26 26 26 26 27 28 29 31 32 33 35 36 38
16 15 15 14 14 15 15 16 16 17 18 19 20 22 23 25 25 26 26 26 27 27 27 27 27 27 27 27 26 26 26 26 26 26 27 28 29 30 32 33 34 36 37 39
16 16 16 15 16 16 16 16 16 16 17 18 19 20 22 23 24 25 26 26 26 27 27 28 28 27 27 26 26 25 26 26 27 28 29 30 30 31 32 34 35 37 38 39
18 18 18 18 18 18 18 18 18 18 18 18 19 19 20 22 23 23 24 24 25 26 27 27 27 27 27 26 26 26 27 28 29 29 30 30 31 32 33 34 35 37 38 40
22 22 22 21 21 21 22 22 22 22 22 21 21 21 21 21 22 22 23 24 24 24 25 26 27 27 27 28 28 28 29 29 30 30 30 30 31 32 33 34 35 37 38 40
25 25 25 25 24 24 24 24 24 24 24 24 24 24 24 24 23 24 24 25 25 25 25 26 27 27 28 29 29 29 30 30 30 30 30 30 31 32 33 34 36 37 39 40
Wind_Direction
206 208 209 209 208 206 206 207 210 217 222 224 227 230 233 236 242 248 256 265 271 276 279 281 282 285 288 292 299 305 308 310 311 314 314 313 309 301 292 284 275 270 264 259
201 201 202 203 204 205 206 209 215 221 226 229 230 228 230 237 246 256 267 275 279 281 282 282 283 285 288 294 303 310 315 317 318 321 320 319 316 310 301 290 280 272 264 257
199 201 201 202 204 206 209 215 221 225 227 228 226 226 232 241 253 266 275 282 283 283 285 286 284 285 289 296 304 312 320 323 325 326 327 327 324 321 315 303 289 275 262 252
204 205 207 207 210 214 219 222 224 225 225 224 223 227 235 245 259 271 279 285 288 288 288 290 289 288 290 297 303 312 322 327 331 333 333 332 332 333 333 322 303 286 267 252
214 216 215 217 221 224 225 225 224 222 222 222 224 231 240 250 262 272 281 289 292 293 291 291 293 293 294 300 304 310 320 328 333 338 341 343 342 342 343 343 335 316 292 255
222 224 226 227 230 231 230 228 223 222 222 224 227 234 242 252 261 273 285 292 297 297 297 295 295 297 298 305 309 313 319 327 333 338 342 348 353 356 356 357 356 345 328 290
230 232 234 235 236 235 234 230 226 225 225 226 231 236 245 253 263 276 287 295 298 299 300 299 298 300 302 308 314 320 325 330 335 340 341 343 347 351 354 354 354 350 337 321
237 237 239 240 240 238 236 234 231 230 229 230 233 238 246 255 266 278 288 295 297 298 300 300 300 301 305 310 316 322 328 333 336 339 342 344 345 344 345 346 345 344 337 326
242 243 242 241 241 239 237 236 235 234 233 234 237 242 247 255 266 278 286 292 295 297 298 297 297 298 302 308 314 320 324 328 331 334 338 340 340 340 340 340 337 333 328 322
245 245 245 243 242 241 240 239 239 238 238 239 242 246 249 256 266 275 282 288 290 293 296 296 295 296 300 306 310 314 318 321 324 327 329 330 331 330 330 329 327 324 321 318
247 247 246 245 243 242 242 241 242 243 243 244 246 250 253 258 266 274 279 283 285 287 290 292 291 292 296 301 305 308 312 315 317 320 321 322 322 322 321 320 319 318 316 315
246 247 247 245 244 244 244 244 244 246 247 248 249 252 256 260 266 273 277 280 281 281 283 286 287 288 290 293 297 301 305 309 312 314 315 316 317 317 316 316 317 316 315 315
244 246 247 248 247 246 246 246 247 248 249 250 251 254 257 261 266 271 275 277 278 277 278 281 282 283 285 287 291 296 300 303 307 310 312 313 314 315 315 315 316 316 315 315
244 245 247 249 249 249 249 248 248 249 250 252 253 255 258 262 266 270 273 275 275 275 274 276 278 280 280 283 288 293 297 300 303 306 308 310 312 313 314 314 314 314 314 314
244 246 248 250 251 250 250 250 250 250 251 253 254 256 259 262 265 268 271 273 273 272 271 272 275 276 278 280 285 290 294 297 299 301 304 307 309 311 312 313 313 313 314 314
245 248 250 251 252 251 251 251 252 252 252 252 254 256 258 260 263 266 268 270 271 271 269 269 272 274 276 279 283 287 291 293 295 298 301 304 307 309 311 311 312 313 314 315
248 250 251 252 252 253 252 252 253 254 254 253 254 255 256 259 261 264 266 267 268 268 268 268 269 272 275 278 282 285 288 291 293 296 299 301 304 307 309 311 312 314 315 316
249 252 254 254 254 254 253 253 254 254 254 254 254 254 255 257 259 262 263 264 266 266 266 266 267 269 273 278 281 284 286 289 291 294 297 299 302 305 308 311 312 314 315 316
250 254 257 259 259 259 258 256 255 255 255 254 254 254 254 256 258 260 261 260 262 263 263 264 266 268 272 276 279 282 285 287 290 292 295 298 302 305 308 311 313 314 316 316
253 257 260 262 263 263 263 261 259 256 255 255 254 254 254 255 256 257 258 259 260 261 261 262 265 267 271 275 278 282 285 287 289 291 294 298 301 305 308 311 313 314 316 317
254 258 261 263 264 264 264 263 261 258 255 254 253 253 253 254 255 256 256 258 259 260 260 262 264 266 270 275 278 280 283 285 287 290 294 299 302 306 309 312 314 315 316 317
255 260 264 266 267 266 265 264 262 260 258 255 254 253 253 254 255 255 256 256 258 260 260 261 263 266 270 274 277 279 281 283 287 291 295 299 303 306 309 312 314 315 317 318
257 260 264 267 269 270 270 268 265 262 260 257 256 255 255 256 257 257 256 257 259 259 259 261 264 267 269 272 275 277 279 282 286 290 295 300 303 306 309 311 313 315 317 319
253 257 260 264 268 270 270 269 270 269 267 266 264 262 261 261 260 259 258 259 260 259 259 262 264 265 268 270 272 275 277 281 285 290 295 299 302 305 309 311 313 315 318 319
254 257 260 263 266 269 270 272 273 273 273 272 271 270 269 267 265 263 262 261 261 262 262 263 263 264 267 269 270 273 277 281 286 290 293 297 301 305 308 310 313 316 318 320
259 262 264 266 269 271 271 272 273 274 275 275 275 275 275 273 271 269 266 264 263 262 261 262 263 265 266 268 270 273 277 281 285 288 292 296 300 304 307 310 313 316 318 321
262 264 266 267 269 271 272 273 274 274 275 275 275 275 274 274 273 271 269 267 265 263 262 263 265 267 268 270 272 275 278 281 284 287 291 295 300 304 307 310 313 316 319 321
Height
5644 5647 5649 5651 5654 5657 5660 5663 5666 5668 5670 5673 5675 5677 5678 5680 5681 5682 5682 5681 5680 5679 5677 5675 5673 5671 5668 5665 5661 5656 5650 5643 5636 5628 5619 5610 5602 5594 5589 5584 5581 5580 5581 5582
5642 5644 5646 5649 5652 5655 5657 5660 5662 5664 5667 5669 5670 5672 5673 5675 5676 5676 5676 5675 5674 5672 5670 5668 5666 5664 5661 5657 5653 5648 5642 5636 5629 5621 5613 5605 5597 5590 5584 5580 5577 5575 5575 5576
5641 5642 5645 5648 5650 5652 5654 5656 5658 5660 5663 5664 5666 5668 5669 5670 5671 5671 5670 5669 5668 5666 5664 5662 5659 5657 5654 5651 5647 5642 5636 5630 5624 5617 5610 5602 5595 5589 5583 5578 5575 5573 5572 5573
5639 5641 5643 5648 5647 5649 5651 5653 5655 5656 5658 5660 5662 5664 5665 5666 5666 5666 5665 5664 5662 5660 5658 5656 5653 5651 5648 5644 5641 5636 5631 5626 5620 5614 5607 5601 5594 5589 5583 5578 5575 5573 5572 5572
5636 5638 5641 5643 5644 5645 5647 5649 5650 5652 5654 5656 5658 5660 5661 5661 5661 5661 5660 5659 5657 5655 5653 5650 5648 5645 5642 5639 5635 5631 5627 5622 5617 5611 5606 5600 5594 5589 5584 5580 5577 5574 5573 5573
5633 5635 5637 5640 5641 5641 5644 5645 5647 5648 5650 5652 5654 5656 5657 5657 5657 5656 5655 5653 5652 5650 5648 5645 5643 5640 5637 5634 5631 5627 5623 5619 5614 5610 5605 5600 5595 5590 5586 5582 5579 5577 5575 5575
5629 5631 5633 5635 5636 5638 5641 5643 5643 5644 5646 5648 5650 5652 5653 5652 5652 5651 5650 5649 5647 5645 5643 5641 5638 5636 5633 5630 5627 5624 5620 5616 5612 5608 5604 5599 5595 5591 5587 5584 5581 5579 5577 5576
5625 5627 5631 5630 5632 5634 5636 5637 5638 5640 5642 5644 5645 5646 5647 5647 5647 5647 5645 5644 5642 5640 5638 5636 5634 5632 5629 5627 5624 5621 5617 5614 5610 5607 5603 5599 5595 5591 5588 5585 5583 5580 5579 5577
5621 5624 5624 5625 5627 5629 5630 5632 5634 5635 5637 5639 5640 5641 5642 5642 5642 5642 5640 5639 5638 5636 5634 5632 5630 5628 5626 5623 5621 5618 5615 5612 5609 5605 5601 5598 5595 5591 5588 5586 5583 5581 5579 5577
5614 5616 5618 5619 5621 5623 5625 5627 5628 5630 5632 5633 5635 5636 5637 5637 5637 5637 5636 5634 5633 5631 5630 5628 5626 5624 5622 5620 5617 5615 5612 5609 5606 5603 5600 5597 5594 5591 5588 5585 5582 5580 5578 5576
5608 5609 5611 5613 5615 5617 5619 5621 5622 5624 5626 5627 5629 5630 5631 5632 5632 5631 5630 5629 5628 5627 5625 5623 5622 5620 5618 5616 5614 5612 5609 5607 5604 5601 5598 5595 5592 5589 5586 5583 5580 5578 5575 5572
5602 5603 5605 5607 5608 5611 5612 5614 5616 5618 5620 5621 5623 5624 5625 5625 5626 5625 5625 5624 5623 5621 5620 5619 5617 5616 5614 5613 5611 5609 5606 5603 5601 5598 5595 5592 5589 5586 5583 5580 5577 5574 5571 5568
5595 5596 5598 5599 5601 5603 5605 5607 5609 5611 5613 5614 5616 5617 5618 5619 5619 5619 5618 5618 5617 5616 5615 5614 5613 5611 5610 5608 5607 5605 5602 5600 5597 5594 5591 5588 5585 5582 5579 5576 5573 5569 5566 5563
5588 5590 5591 5592 5594 5596 5598 5600 5602 5604 5605 5607 5608 5610 5611 5611 5612 5612 5612 5611 5611 5610 5609 5608 5607 5606 5605 5603 5602 5600 5598 5595 5592 5589 5587 5583 5580 5577 5574 5571 5568 5564 5561 5557
5581 5583 5585 5586 5587 5589 5590 5592 5594 5596 5597 5599 5601 5602 5603 5604 5604 5605 5605 5605 5604 5604 5603 5602 5602 5601 5599 5598 5596 5594 5592 5590 5587 5584 5582 5578 5575 5572 5569 5566 5562 5558 5555 5550
5575 5576 5578 5579 5580 5581 5583 5584 5586 5588 5589 5591 5592 5594 5595 5596 5596 5597 5597 5597 5597 5597 5596 5596 5595 5594 5593 5592 5590 5588 5586 5584 5581 5579 5576 5573 5570 5567 5563 5560 5556 5552 5548 5543
5568 5570 5571 5572 5573 5574 5575 5576 5578 5579 5581 5582 5584 5585 5586 5587 5588 5589 5589 5589 5590 5589 5589 5589 5588 5588 5586 5585 5584 5582 5580 5577 5575 5572 5570 5567 5564 5560 5557 5553 5549 5545 5541 5536
5561 5563 5564 5565 5566 5566 5567 5568 5570 5571 5572 5573 5575 5576 5577 5579 5580 5580 5581 5581 5582 5582 5582 5581 5581 5580 5579 5578 5577 5575 5573 5571 5568 5566 5563 5560 5557 5554 5550 5546 5542 5538 5533 5528
5554 5556 5557 5557 5558 5559 5559 5560 5561 5562 5563 5565 5566 5567 5569 5570 5571 5572 5572 5573 5573 5574 5574 5574 5573 5573 5572 5571 5569 5568 5566 5564 5561 5559 5556 5553 5550 5547 5543 5539 5535 5530 5525 5520
5548 5549 5550 5550 5551 5551 5552 5552 5553 5554 5555 5556 5557 5558 5560 5561 5562 5563 5564 5564 5565 5565 5566 5566 5565 5565 5564 5563 5562 5560 5559 5556 5554 5552 5549 5546 5543 5539 5535 5531 5527 5522 5517 5512
5543 5543 5544 5544 5544 5544 5544 5545 5545 5546 5547 5548 5549 5550 5551 5552 5553 5554 5555 5556 5556 5557 5557 5557 5557 5557 5556 5555 5554 5552 5551 5549 5546 5544 5541 5538 5535 5532 5528 5524 5519 5514 5509 5503
5538 5538 5538 5538 5538 5538 5538 5538 5539 5539 5539 5540 5541 5542 5543 5544 5545 5546 5546 5547 5548 5548 5549 5549 5549 5548 5548 5547 5546 5544 5543 5541 5539 5536 5534 5531 5528 5524 5520 5516 5511 5506 5500 5494
5533 5533 5533 5533 5533 5533 5533 5533 5533 5533 5533 5533 5534 5534 5535 5536 5536 5537 5538 5539 5539 5540 5540 5540 5540 5540 5539 5538 5537 5536 5534 5533 5531 5529 5526 5523 5520 5516 5512 5508 5503 5498 5492 5486
5527 5528 5528 5528 5528 5528 5528 5527 5527 5527 5527 5527 5527 5527 5528 5528 5528 5529 5529 5530 5530 5531 5531 5531 5531 5531 5530 5529 5528 5527 5526 5525 5523 5520 5518 5515 5512 5508 5504 5499 5495 5489 5483 5477
5521 5522 5522 5522 5522 5522 5522 5522 5521 5521 5521 5521 5521 5521 5520 5520 5520 5521 5521 5521 5522 5522 5522 5522 5522 5521 5521 5521 5520 5519 5518 5516 5514 5512 5509 5507 5503 5500 5496 5491 5486 5481 5475 5468
5514 5514 5515 5515 5515 5515 5515 5515 5515 5514 5514 5514 5514 5514 5513 5513 5513 5513 5513 5513 5513 5513 5513 5513 5513 5513 5512 5512 5511 5511 5509 5508 5506 5504 5501 5498 5495 5491 5487 5483 5478 5472 5467 5460
5505 5506 5506 5507 5507 5507 5507 5507 5507 5506 5506 5506 5506 5506 5505 5505 5505 5505 5505 5505 5505 5505 5505 5505 5504 5504 5504 5503 5502 5501 5500 5499 5497 5495 5492 5490 5487 5483 5479 5475 5470 5464 5458 5452